• In Romania
  • List of Countries
  • For 7 days
  • Water Temperature
  • Satellite Maps
  • Weather Map
  • Weather Widgets
  • user-avatar
    Login

    Hourly Weather Lethem

    Today, 20 June, Wednesday

    Time Temperature Precipitation Wind Pressure Humidity
    00:00 +26°C° 0 mm 1 mps 754 mmHg 85%
    01:00 +26°C° 0 mm 1 mps 753 mmHg 86%
    02:00 +25°C° 0 mm 1 mps 753 mmHg 86%
    03:00 +25°C° 0.4 mm 1 mps 753 mmHg 88%
    04:00 +25°C° 0.4 mm 1 mps 753 mmHg 89%
    05:00 +25°C° 0.4 mm 1 mps 753 mmHg 90%
    06:00 +26°C° 2 mm 1 mps 754 mmHg 87%
    07:00 +26°C° 2 mm 1 mps 754 mmHg 85%
    08:00 +27°C° 2 mm 1 mps 754 mmHg 82%
    09:00 +28°C° 1.9 mm 1 mps 754 mmHg 77%
    10:00 +29°C° 1.9 mm 1 mps 754 mmHg 73%
    11:00 +30°C° 1.9 mm 1 mps 754 mmHg 68%
    12:00 +31°C° 1 mm 1 mps 753 mmHg 68%
    13:00 +31°C° 1 mm 1 mps 753 mmHg 68%
    14:00 +31°C° 1 mm 1 mps 752 mmHg 69%
    15:00 +31°C° 0.6 mm 1 mps 752 mmHg 70%
    16:00 +30°C° 0.6 mm 1 mps 752 mmHg 71%
    17:00 +30°C° 0.6 mm 1 mps 751 mmHg 72%
    18:00 +29°C° 0.3 mm 1 mps 752 mmHg 77%
    19:00 +28°C° 0.3 mm 1 mps 752 mmHg 81%
    20:00 +27°C° 0.3 mm 1 mps 753 mmHg 86%
    21:00 +26°C° 0.4 mm 1 mps 753 mmHg 87%
    22:00 +26°C° 0.4 mm 1 mps 753 mmHg 88%
    23:00 +26°C° 0.4 mm 1 mps 754 mmHg 89%

    Tomorrow, 21 June, Thursday

    Time Temperature Precipitation Wind Pressure Humidity
    00:00 +26°C° 0.4 mm 1 mps 754 mmHg 89%
    01:00 +25°C° 0.4 mm 1 mps 753 mmHg 89%
    02:00 +25°C° 0.4 mm 1 mps 753 mmHg 90%
    03:00 +25°C° 0.1 mm 1 mps 753 mmHg 90%
    04:00 +23°C° 0.1 mm 0 mps 753 mmHg 91%
    05:00 +22°C° 0.1 mm 0 mps 753 mmHg 92%
    06:00 +23°C° 0.2 mm 0 mps 754 mmHg 88%
    07:00 +24°C° 0.2 mm 0 mps 754 mmHg 84%
    08:00 +25°C° 0.2 mm 0 mps 755 mmHg 81%
    09:00 +27°C° 0.8 mm 0 mps 754 mmHg 74%
    10:00 +28°C° 0.8 mm 0 mps 754 mmHg 68%
    11:00 +30°C° 0.8 mm 0 mps 754 mmHg 62%
    12:00 +30°C° 0.8 mm 0 mps 754 mmHg 63%
    13:00 +32°C° 0.8 mm 1 mps 753 mmHg 64%
    14:00 +32°C° 0.8 mm 1 mps 752 mmHg 65%
    15:00 +31°C° 1.4 mm 1 mps 752 mmHg 69%
    16:00 +30°C° 1.4 mm 1 mps 751 mmHg 73%
    17:00 +30°C° 1.4 mm 2 mps 751 mmHg 77%
    18:00 +29°C° 0.4 mm 2 mps 751 mmHg 80%
    19:00 +28°C° 0.4 mm 2 mps 752 mmHg 84%
    20:00 +27°C° 0.4 mm 2 mps 753 mmHg 87%
    21:00 +26°C° 0.1 mm 2 mps 753 mmHg 88%
    22:00 +26°C° 0.1 mm 2 mps 754 mmHg 88%
    23:00 +26°C° 0.1 mm 2 mps 754 mmHg 89%

    Day after tomorrow, 22 June, Friday

    Time Temperature Precipitation Wind Pressure Humidity
    00:00 +26°C° 0.1 mm 2 mps 754 mmHg 89%
    01:00 +26°C° 0.1 mm 2 mps 753 mmHg 90%
    02:00 +25°C° 0.1 mm 2 mps 753 mmHg 91%
    03:00 +25°C° 0 mm 2 mps 753 mmHg 91%
    04:00 +25°C° 0 mm 2 mps 753 mmHg 92%
    05:00 +25°C° 0 mm 1 mps 753 mmHg 92%
    06:00 +26°C° 0 mm 2 mps 753 mmHg 89%
    07:00 +26°C° 0 mm 2 mps 753 mmHg 86%
    08:00 +27°C° 0 mm 3 mps 754 mmHg 83%
    09:00 +29°C° 0.1 mm 3 mps 754 mmHg 76%
    10:00 +30°C° 0.1 mm 3 mps 754 mmHg 70%
    11:00 +31°C° 0.1 mm 3 mps 753 mmHg 63%
    12:00 +33°C° 0.3 mm 3 mps 753 mmHg 62%
    13:00 +32°C° 0.3 mm 2 mps 752 mmHg 61%
    14:00 +34°C° 0.3 mm 2 mps 751 mmHg 59%
    15:00 +32°C° 0.4 mm 2 mps 751 mmHg 63%
    16:00 +31°C° 0.4 mm 2 mps 750 mmHg 67%
    17:00 +31°C° 0.4 mm 2 mps 750 mmHg 71%
    18:00 +29°C° 0.1 mm 2 mps 750 mmHg 75%
    19:00 +28°C° 0.1 mm 2 mps 751 mmHg 80%
    20:00 +27°C° 0.1 mm 2 mps 752 mmHg 85%
    21:00 +27°C° 0.3 mm 2 mps 752 mmHg 85%
    22:00 +26°C° 0.3 mm 2 mps 752 mmHg 86%
    23:00 +26°C° 0.3 mm 2 mps 753 mmHg 86%

    23 June, Saturday

    Time Temperature Precipitation Wind Pressure Humidity
    00:00 +26°C° 0.2 mm 2 mps 752 mmHg 87%
    01:00 +25°C° 0.2 mm 2 mps 752 mmHg 88%
    02:00 +25°C° 0.2 mm 2 mps 751 mmHg 89%
    03:00 +25°C° 0.5 mm 2 mps 751 mmHg 90%
    04:00 +25°C° 0.5 mm 2 mps 751 mmHg 91%
    05:00 +25°C° 0.5 mm 2 mps 752 mmHg 92%
    06:00 +25°C° 0.3 mm 2 mps 752 mmHg 91%
    07:00 +26°C° 0.3 mm 2 mps 753 mmHg 90%
    08:00 +26°C° 0.3 mm 2 mps 753 mmHg 89%
    09:00 +28°C° 0.1 mm 3 mps 753 mmHg 80%
    10:00 +30°C° 0.1 mm 3 mps 753 mmHg 71%
    11:00 +33°C° 0.1 mm 3 mps 753 mmHg 63%
    12:00 +33°C° 0.2 mm 3 mps 752 mmHg 60%
    13:00 +34°C° 0.2 mm 3 mps 751 mmHg 58%
    14:00 +34°C° 0.2 mm 3 mps 750 mmHg 55%
    15:00 +34°C° 0.3 mm 3 mps 750 mmHg 59%
    16:00 +33°C° 0.3 mm 3 mps 750 mmHg 63%
    17:00 +31°C° 0.3 mm 2 mps 749 mmHg 67%
    18:00 +30°C° 0.5 mm 3 mps 750 mmHg 73%
    19:00 +28°C° 0.5 mm 3 mps 751 mmHg 79%
    20:00 +27°C° 0.5 mm 3 mps 751 mmHg 85%
    21:00 +27°C° 0.1 mm 3 mps 752 mmHg 85%
    22:00 +26°C° 0.1 mm 3 mps 752 mmHg 86%
    23:00 +26°C° 0.1 mm 3 mps 752 mmHg 86%

    24 June, Sunday

    Time Temperature Precipitation Wind Pressure Humidity
    00:00 +26°C° 0.1 mm 3 mps 752 mmHg 87%
    01:00 +26°C° 0.1 mm 3 mps 752 mmHg 88%
    02:00 +25°C° 0.1 mm 2 mps 751 mmHg 89%
    03:00 +25°C° 0.2 mm 2 mps 752 mmHg 90%
    04:00 +25°C° 0.2 mm 2 mps 752 mmHg 91%
    05:00 +25°C° 0.2 mm 2 mps 752 mmHg 92%
    06:00 +25°C° 0.1 mm 2 mps 752 mmHg 90%
    07:00 +26°C° 0.1 mm 3 mps 753 mmHg 89%
    08:00 +26°C° 0.1 mm 3 mps 753 mmHg 87%
    09:00 +28°C° 0.3 mm 3 mps 753 mmHg 80%
    10:00 +29°C° 0.3 mm 3 mps 753 mmHg 73%
    11:00 +31°C° 0.3 mm 3 mps 753 mmHg 65%
    12:00 +31°C° 0.9 mm 2 mps 752 mmHg 65%
    13:00 +32°C° 0.9 mm 2 mps 751 mmHg 65%
    14:00 +32°C° 0.9 mm 2 mps 750 mmHg 66%
    15:00 +32°C° 0.2 mm 2 mps 750 mmHg 65%
    16:00 +32°C° 0.2 mm 2 mps 750 mmHg 65%
    17:00 +32°C° 0.2 mm 2 mps 750 mmHg 65%
    18:00 +30°C° 1.7 mm 2 mps 750 mmHg 72%
    19:00 +29°C° 1.7 mm 2 mps 751 mmHg 79%
    20:00 +27°C° 1.7 mm 3 mps 752 mmHg 86%
    21:00 +27°C° 0.7 mm 2 mps 752 mmHg 87%
    22:00 +27°C° 0.7 mm 2 mps 752 mmHg 88%
    23:00 +26°C° 0.7 mm 2 mps 752 mmHg 90%

    25 June, Monday

    Time Temperature Precipitation Wind Pressure Humidity
    00:00 +26°C° 0.1 mm 2 mps 752 mmHg 90%
    01:00 +26°C° 0.1 mm 2 mps 752 mmHg 91%
    02:00 +25°C° 0.1 mm 2 mps 751 mmHg 92%
    03:00 +25°C° 0.1 mm 2 mps 751 mmHg 92%
    04:00 +25°C° 0.1 mm 2 mps 751 mmHg 92%
    05:00 +25°C° 0.1 mm 2 mps 751 mmHg 92%
    06:00 +26°C° 0 mm 2 mps 752 mmHg 90%
    07:00 +26°C° 0 mm 2 mps 752 mmHg 88%
    08:00 +27°C° 0 mm 2 mps 753 mmHg 86%
    09:00 +28°C° 0.2 mm 2 mps 753 mmHg 78%
    10:00 +30°C° 0.2 mm 3 mps 753 mmHg 71%
    11:00 +31°C° 0.2 mm 3 mps 753 mmHg 64%
    12:00 +33°C° 0.2 mm 3 mps 752 mmHg 62%
    13:00 +33°C° 0.2 mm 3 mps 751 mmHg 61%
    14:00 +33°C° 0.2 mm 3 mps 751 mmHg 59%
    15:00 +33°C° 0.3 mm 3 mps 750 mmHg 63%
    16:00 +31°C° 0.3 mm 3 mps 750 mmHg 66%
    17:00 +31°C° 0.3 mm 3 mps 750 mmHg 69%
    18:00 +30°C° 0.2 mm 3 mps 751 mmHg 74%
    19:00 +28°C° 0.2 mm 3 mps 751 mmHg 79%
    20:00 +27°C° 0.2 mm 2 mps 752 mmHg 85%
    21:00 +27°C° 0.4 mm 2 mps 752 mmHg 86%
    22:00 +26°C° 0.4 mm 3 mps 752 mmHg 86%
    23:00 +26°C° 0.4 mm 3 mps 752 mmHg 87%
    Show more